This is the latest recevied weather packets stored in our database for station/object EB2EMZ-3. If no packets are shown the sender has not sent any weather packets the latest 10 day(s).
| Time | Temp. | Humidity | Pressure | Rain* | Wind** | Luminosity | Snow |
|---|---|---|---|---|---|---|---|
| 1777975775 | 20.56° C | 62% | 1011.1 hPa | 0 mm | - | - | - |
| 1777975475 | 20° C | 62% | 1010.9 hPa | 0 mm | - | - | - |
| 1777975175 | 20° C | 63% | 1011.1 hPa | 0 mm | - | - | - |
| 1777974875 | 20° C | 63% | 1011.1 hPa | 0 mm | - | - | - |
| 1777974575 | 19.44° C | 63% | 1011 hPa | 0 mm | - | - | - |
| 1777974275 | 19.44° C | 63% | 1011.2 hPa | 0 mm | - | - | - |
| 1777973975 | 19.44° C | 63% | 1011 hPa | 0 mm | - | - | - |
| 1777973675 | 19.44° C | 63% | 1011.1 hPa | 0 mm | - | - | - |
| 1777973375 | 19.44° C | 63% | 1011.1 hPa | 0 mm | - | - | - |
| 1777973075 | 19.44° C | 63% | 1011.1 hPa | 0 mm | - | - | - |
| 1777972776 | 20° C | 63% | 1011.3 hPa | 0 mm | - | - | - |
| 1777972475 | 20° C | 63% | 1011.2 hPa | 0 mm | - | - | - |
| 1777972175 | 18.89° C | 66% | 1011.1 hPa | 0 mm | - | - | - |
| 1777971876 | 18.89° C | 66% | 1011 hPa | 0 mm | - | - | - |
| 1777971575 | 18.89° C | 64% | 1011 hPa | 0 mm | - | - | - |
| 1777971276 | 18.89° C | 64% | 1010.9 hPa | 0 mm | - | - | - |
| 1777970976 | 18.89° C | 67% | 1011.3 hPa | 0 mm | - | - | - |
| 1777970676 | 18.89° C | 67% | 1011.1 hPa | 0 mm | - | - | - |
| 1777970376 | 18.33° C | 68% | 1011 hPa | 0 mm | - | - | - |
| 1777970076 | 18.33° C | 69% | 1011 hPa | 0 mm | - | - | - |
| 1777969776 | 18.33° C | 69% | 1011.1 hPa | 0 mm | - | - | - |
| 1777969476 | 18.33° C | 69% | 1011 hPa | 0 mm | - | - | - |
| 1777969176 | 18.89° C | 69% | 1011.1 hPa | 0 mm | - | - | - |
| 1777968876 | 18.89° C | 69% | 1011.1 hPa | 0 mm | - | - | - |
| 1777968576 | 18.89° C | 69% | 1011 hPa | 0 mm | - | - | - |
* Rain latest hour (hover to see other rain measurements)
** Current wind speed in m/s (hover to see current wind gust speed)